Facebook Twitter

Wetterstation Ried i.Innkreis

aktuelles Wetter
  Temperatur Wetter Niederschlag Luftdruck Wind
Mi, 19:00 Uhr 18° - 0.0 mm 1011 hPa 0 km/h
Mi, 18:00 Uhr 18° - 0 mm 1011 hPa 4 km/h W
Mi, 17:00 Uhr 18° - 0.1 mm 1011 hPa 4 km/h SW
Mi, 16:00 Uhr 15° - 0.1 mm 1012 hPa 7 km/h SW
Mi, 15:00 Uhr 18° - 0.1 mm 1011 hPa 4 km/h SW
Mi, 14:00 Uhr 18° - 0.6 mm 1011 hPa 0 km/h SW
Mi, 13:00 Uhr 18° - 0.1 mm 1011 hPa 4 km/h W
Mi, 12:00 Uhr 17° - 0 mm 1012 hPa 4 km/h SW
Mi, 11:00 Uhr 16° - 0.6 mm 1012 hPa 7 km/h SW
Mi, 10:00 Uhr 14° - 0.6 mm 1011 hPa 7 km/h SW
Mi, 09:00 Uhr 14° - 0.1 mm 1011 hPa 4 km/h SW
Mi, 08:00 Uhr 13° - 13 mm 1011 hPa 4 km/h SW
Mi, 07:00 Uhr 12° - 0.0 mm 1010 hPa 0 km/h SW
Mi, 06:00 Uhr 12° Schauer 0.1 mm 1010 hPa 4 km/h S
Mi, 05:00 Uhr 12° - 0.0 mm 1010 hPa 0 km/h S
Mi, 04:00 Uhr 12° - 0.0 mm 1010 hPa 0 km/h S
Mi, 03:00 Uhr 12° - 0.0 mm 1010 hPa 0 km/h S
Mi, 02:00 Uhr 12° 11.0 mm 1009 hPa 0 km/h S
Mi, 01:00 Uhr 12° - 2 mm 1009 hPa 11 km/h SW
Mi, 00:00 Uhr 12° - 3 mm 1009 hPa 7 km/h SW

Alle Zeitangaben MESZ